Location: The Crossroads
(38.9009°N, 90.5626°W)
Time: 12:30:27
(UTC+00:00)

Daily predictions for brighter satellites

Satellite Brightness Start Highest point End
(mag) Time Altitude Azimuth Time Altitude Azimuth Time Altitude Azimuth
Cosmos 2221 3.4 12:04:28 10° N 12:08:29 48° E 12:12:28 10° SSE
OAO 2 Rocket 4.0 12:05:46 10° WSW 12:10:48 52° S 12:15:46 10° E
Meteor 2-20 Rocket 4.4 12:07:29 10° NNW 12:13:00 50° W 12:18:29 10° SSW
Cosmos 1758 Rocket 3.6 12:09:17 10° SSW 12:13:39 60° W 12:18:00 10° N
Cosmos 1484 Rocket 2.7 12:10:49 10° N 12:14:03 42° WNW 12:17:13 10° SW
NOSS 8 (A) 4.4 12:16:23 10° NNW 12:19:20 72° ENE 12:22:54 10° SE
Cosmos 1437 Rocket 3.6 12:18:58 10° N 12:22:18 45° ENE 12:25:39 10° SSE
BREEZE-M DEB (TANK) 3.7 12:18:05 10° SW 12:22:37 54° SE 12:25:01 10° ENE
Helios 1A Rocket 3.7 12:21:15 10° SSW 12:23:57 23° W 12:26:39 10° NW
ISS -1.4 12:22:13 10° SSW 12:25:10 28° SE 12:28:08 10° ENE
[s.n.66875] 3.2 12:25:56 10° SW 12:28:15 32° SSE 12:30:36 10° E
[s.n.66873] 3.1 12:26:38 10° SW 12:28:57 32° SSE 12:31:18 10° E
[s.n.66876] 3.1 12:27:06 10° SW 12:29:25 32° SSE 12:31:46 10° E
Cosmos 2360 Rocket 2.4 12:24:27 10° NNW 12:29:56 54° WSW 12:35:22 10° S
[s.n.66874] 3.1 12:27:54 10° SW 12:30:14 33° SSE 12:32:35 10° E
[s.n.66872] 3.1 12:28:40 10° SW 12:31:01 34° SSE 12:33:24 10° E
[s.n.66871] 3.0 12:29:13 10° SW 12:31:34 34° SSE 12:33:56 10° E
[s.n.66870] 3.0 12:30:02 10° SW 12:32:23 35° SSE 12:34:46 10° E
CZ-2D R/B 2.8 12:29:57 10° NNE 12:33:07 81° ESE 12:36:16 10° S
[s.n.66869] 3.0 12:30:48 10° SW 12:33:11 35° SSE 12:35:34 10° E
[s.n.66868] 2.9 12:31:25 10° SW 12:33:48 36° SSE 12:36:12 10° E
[s.n.66867] 2.9 12:32:12 10° SW 12:34:35 36° SSE 12:37:00 10° E
ATLAS 3B R/B 4.2 12:27:32 10° NNW 12:34:38 35° NE 12:41:22 10° ESE
COSMO-SKYMED 1 3.9 12:31:44 10° SW 12:34:42 19° W 12:37:42 10° NW
Cosmos 405 Rocket 3.7 12:32:28 10° WSW 12:34:53 19° WNW 12:37:20 10° NNW
[s.n.66866] 2.9 12:32:57 10° SW 12:35:21 37° SSE 12:37:45 10° E
[s.n.66865] 2.9 12:33:29 10° SW 12:35:54 37° SSE 12:38:18 10° E
Cosmos 2333 Rocket 3.0 12:31:00 10° NW 12:36:01 32° WSW 12:40:59 10° SSW
Cosmos-2242 4.3 12:33:00 10° NW 12:36:02 19° W 12:39:01 10° SW
Cosmos 1626 Rocket 4.4 12:32:17 10° SW 12:36:05 28° WNW 12:39:54 10° NNW
[s.n.66860] 2.8 12:34:09 10° SW 12:36:33 38° SSE 12:38:59 10° E
OAO 3 Rocket 4.0 12:32:37 10° WSW 12:37:07 49° S 12:41:42 10° E
[s.n.66864] 2.8 12:34:46 10° SW 12:37:10 38° SSE 12:39:37 10° E
[s.n.66863] 2.8 12:35:21 10° SW 12:37:47 39° SSE 12:40:13 10° E
[s.n.66861] 2.7 12:36:10 10° SW 12:38:36 40° SSE 12:41:03 10° E
Cosmos 1707 2.5 12:35:48 10° N 12:38:56 71° E 12:42:02 10° SSE
[s.n.66862] 2.7 12:36:49 10° SW 12:39:15 40° SSE 12:41:42 10° E
[s.n.66859] 2.7 12:37:31 10° SW 12:39:57 41° SSE 12:42:25 10° E
[s.n.66858] 2.7 12:38:11 10° SW 12:40:38 41° SSE 12:43:05 10° E
[s.n.66857] 2.6 12:38:45 10° SW 12:41:13 42° SSE 12:43:41 10° E
[s.n.66856] 2.6 12:39:19 10° SW 12:41:46 42° SSE 12:44:14 10° E
[s.n.66855] 2.6 12:40:00 10° SW 12:42:27 43° SSE 12:44:56 10° E
SJ-12 3.7 12:39:00 10° NNE 12:42:49 86° WNW 12:46:38 10° SSW
[s.n.66854] 2.6 12:40:34 10° SW 12:43:02 44° SSE 12:45:31 10° E
[s.n.66853] 2.5 12:41:18 10° SW 12:43:46 44° SSE 12:46:14 10° ENE
MOS 1 Rocket 3.7 12:40:07 10° NNE 12:45:31 84° ESE 12:50:42 10° S
Cosmos 2219 Rocket 2.2 12:40:58 10° NNW 12:46:36 69° WSW 12:52:09 10° SSE
Cosmos 1461 3.8 23:05:42 10° SW 23:09:23 43° NW 23:13:09 10° NNE
Cosmos 1726 Rocket 4.4 23:08:12 10° SSE 23:12:19 33° E 23:16:26 10° NNE
Cosmos 1933 3.4 23:10:58 10° S 23:14:39 49° E 23:18:22 10° NNE
Cosmos 1354 Rocket 4.0 23:10:44 10° S 23:15:58 74° ESE 23:21:14 10° NNE
Cosmos 1743 2.3 23:14:14 10° N 23:17:29 85° W 23:20:41 10° S
Cosmos 1980 Rocket 2.9 23:14:00 10° SSE 23:19:03 35° ESE 23:24:06 10° NE
GEOS 3 Rocket 4.0 23:14:55 10° NNE 23:20:16 67° NW 23:25:34 10° SW
SJ-12 4.2 23:18:56 10° SE 23:22:26 37° ENE 23:25:56 10° N
Cosmos-2242 4.5 23:20:04 10° SE 23:22:47 17° E 23:25:30 10° NE
Okean 1-7 Rocket 3.6 23:18:48 10° N 23:23:06 54° E 23:27:20 10° SSE
Cosmos 1602 Rocket 3.5 23:19:21 10° N 23:23:44 85° E 23:28:04 10° S
CORIOLIS 4.1 23:19:06 10° SSE 23:24:24 76° ENE 23:29:45 10° N
YAOGAN 1 4.1 23:23:08 10° E 23:25:23 14° ENE 23:27:38 10° NNE
IRIDIUM 104 4.3 23:23:26 10° N 23:28:41 81° E 23:33:53 10° S
Meteor 1-25 Rocket 4.3 23:25:29 10° N 23:31:15 63° E 23:36:55 10° SSE
SAR-Lupe-4 3.6 23:28:51 10° SSE 23:32:18 52° ENE 23:35:46 10° N
SKYMED 2 4.4 23:28:50 10° NE 23:32:41 30° E 23:36:30 10° SSE
Cosmos 2263 Rocket 3.0 23:28:49 10° N 23:33:39 28° ENE 23:38:26 10° ESE
IGS 5A 4.5 23:30:07 10° S 23:33:55 48° W 23:37:47 10° NNW
Cosmos 2151 3.2 23:30:02 10° N 23:34:11 74° W 23:38:19 10° S
SL-16 R/B 3.8 23:30:24 10° N 23:36:09 41° WNW 23:41:51 10° SW
IRIDIUM 114 4.4 23:32:34 10° N 23:37:49 83° W 23:43:01 10° S
Cosmos 372 Rocket 4.5 23:33:18 10° S 23:38:04 39° ESE 23:42:48 10° NE
IRS-1C 4.1 23:36:05 10° SSE 23:41:22 76° ENE 23:46:42 10° N
NOSS 2-3 (C) 3.0 23:38:35 10° SW 23:42:07 81° WNW 23:45:09 13° NNE
SAR-Lupe-1 4.0 23:39:51 10° SSE 23:43:23 63° ENE 23:46:58 10° N
Cosmos 1937 Rocket 4.5 23:40:56 10° SSE 23:45:11 26° E 23:47:52 17° ENE
Helios 1A Rocket 4.1 23:46:12 16° ESE 23:46:12 16° ESE 23:48:06 10° SE
Cosmos 1953 Rocket 3.9 23:43:29 10° N 23:47:41 41° ENE 23:51:54 10° SSE
BREEZE-M DEB (TANK) 3.3 23:49:04 10° NW 23:50:12 14° N 23:50:43 13° N
MOS 1 Rocket 3.3 23:45:43 10° SSE 23:50:31 72° ENE 23:55:38 10° N
Cosmos 2227 Rocket 2.1 23:45:10 10° NNW 23:50:48 66° ENE 23:56:23 10° SSE
Cosmos 2084 Rocket 3.4 23:47:11 10° NW 23:51:24 85° WSW 23:55:36 10° SSE
Cosmos 990 Rocket 4.5 23:47:14 10° SSW 23:52:16 60° WNW 23:57:22 10° NNE
EXPRESS MD2 2.5 23:51:11 10° WSW 23:53:34 69° NNW 23:55:07 26° NE
